User: anonymous   Login
Location: Kelshall
(52.0000°N, 0.0500°W)
Time: 08:27:19
(UTC+00:00)
Language:

Cosmos 1092 Rocket - Orbit

View from above orbital plane
View from above orbital plane
View from above satellite
View from above satellite

Ground track
Ground track

The orbit data is extracted from the following two-line orbital elements,

1 11327U 79030B   20329.58656435 +.00000006 +00000-0 -89586-5 0  9999
2 11327 082.9503 083.0122 0026524 261.9883 108.7566 13.76946895091826
Epoch (UTC): 24 November 2020 14:04:39
Eccentricity: 0.0026524
inclination: 82.9503°
perigee height: 955 km
apogee height: 994 km
right ascension of ascending node: 83.0122°
argument of perigee: 261.9883°
revolutions per day: 13.76946895
mean anomaly at epoch: 108.7566°
orbit number at epoch: 9182

The dashed part of the orbit path shows where the satellite is in the earth's shadow,  

DLR